Home   Weather   Esfahãn   Past weeks

Flag for Iran Past Weather in Esfahãn, Iran — Yesterday and Last 2 Weeks

Now
73 °F

Clear.


Feels Like: 74 °F
Forecast: 48 / 88 °F
Wind: 5 mph from Southwest

Location: Esfahan

Current Time: Sep 27, 2016 at 8:52:41 PM

Latest Report: Sep 27, 2016 at 8:00 PM


Visibility: 10 mi

Pressure: 30.12 "Hg (25.11 "Hg at 1576m altitude)

Humidity: 11%

Dew Point: 16 °F

Location of EsfahãnLocation

Past Weather in Esfahãn — Graph

°F

Esfahãn Temperature Yesterday

Maximum temperature yesterday: 88 °F (at 2:00 PM)
Minimum temperature yesterday: 50 °F (at 6:30 AM)
Average temperature yesterday: 71 °F

High & Low Weather Summary for the Past Weeks

 TemperatureHumidityPressure
High95 °F (Sep 14, 4:00 PM)51% (Sep 14, 5:30 AM)30.21 "Hg (Sep 14, 5:30 AM)
Low48 °F (Sep 21, 5:00 AM)6% (Sep 22, 1:30 PM)29.86 "Hg (Sep 24, 3:00 PM)
Average74 °F18%30.03 "Hg
* Reported Sep 12 8:30 PM — Sep 27 7:30 PM, Esfahãn, Weather by CustomWeather, © 2016

Note: Actual official high and low records may vary slightly from our data, if they occured in-between our weather recording intervals... More about our weather records

Advertising

Esfahãn Weather History for the Previous 24 Hours

Scroll right to see more
 ConditionsComfort  
Time TempWeatherWind HumidityBarometerVisibility
7:30 PM
Tue, Sep 27
73 °FClear.5 mph9%30.12 "Hg10 mi
7:00 PM77 °FClear.5 mph10%30.09 "Hg10 mi
6:30 PM77 °FClear.9 mph9%30.09 "Hg10 mi
6:00 PM81 °FSunny.9 mph9%30.09 "Hg10 mi
5:30 PM86 °FSunny.9 mph8%30.09 "Hg10 mi
5:00 PM88 °FSunny.12 mph7%30.09 "Hg10 mi
4:30 PM90 °FSunny.7 mph7%30.09 "Hg10 mi
4:00 PM90 °FSunny.No wind7%30.09 "Hg10 mi
3:30 PM90 °FSunny.5 mph8%30.09 "Hg10 mi
3:00 PM88 °FSunny.No wind8%30.09 "Hg10 mi
2:30 PM88 °FSunny.5 mph9%30.09 "Hg10 mi
2:00 PM86 °FSunny.No wind8%30.12 "Hg10 mi
1:30 PM86 °FSunny.No wind9%30.12 "Hg10 mi
1:00 PM86 °FSunny.14 mph9%30.12 "Hg10 mi
12:30 PM86 °FSunny.9 mph11%30.15 "Hg10 mi
12:00 PM86 °FSunny.12 mph10%30.15 "Hg10 mi
11:30 AM82 °FClear.7 mph13%30.18 "Hg5 mi
11:00 AM82 °FClear.5 mph13%30.18 "Hg5 mi
10:30 AM81 °FClear.No wind14%30.18 "Hg5 mi
10:00 AM79 °FClear.5 mph16%30.21 "Hg5 mi
9:30 AM75 °FClear.5 mph18%30.21 "Hg5 mi
9:00 AM72 °FClear.7 mph20%30.21 "Hg5 mi
8:30 AM68 °FClear.7 mph21%30.18 "Hg5 mi
8:00 AM64 °FClear.9 mph24%30.18 "Hg4 mi
7:30 AM61 °FSunny.7 mph23%30.18 "Hg10 mi
7:00 AM59 °FClear.9 mph25%30.15 "Hg4 mi
6:30 AM55 °FClear.7 mph28%30.15 "Hg4 mi
6:00 AM57 °FClear.7 mph27%30.15 "Hg4 mi
5:30 AM54 °FClear.9 mph28%30.12 "Hg4 mi
5:00 AM54 °FClear.7 mph30%30.12 "Hg10 mi
4:30 AM54 °FClear.7 mph30%30.12 "Hg10 mi
4:00 AM55 °FClear.5 mph28%30.12 "Hg10 mi
3:30 AM55 °FClear.7 mph28%30.12 "Hg10 mi
3:00 AM55 °FClear.9 mph28%30.12 "Hg10 mi
2:30 AM55 °FClear.7 mph28%30.12 "Hg10 mi
2:00 AM57 °FClear.7 mph27%30.12 "Hg10 mi
1:30 AM59 °FClear.7 mph25%30.12 "Hg10 mi
1:00 AM59 °FClear.No wind23%30.12 "Hg10 mi
12:30 AM66 °FClear.7 mph21%30.12 "Hg10 mi
12:00 AM63 °FClear.9 mph24%30.12 "Hg10 mi
11:30 PM
Mon, Sep 26
61 °FClear.7 mph25%30.12 "Hg10 mi
11:00 PM66 °FClear.9 mph19%30.09 "Hg10 mi
10:30 PM68 °FClear.9 mph18%30.09 "Hg10 mi
10:00 PM70 °FClear.9 mph17%30.09 "Hg10 mi
9:30 PM70 °FClear.12 mph16%30.09 "Hg10 mi
9:00 PM68 °FClear.9 mph18%30.09 "Hg10 mi
8:30 PM72 °FClear.7 mph14%30.09 "Hg10 mi
8:00 PM75 °FClear.7 mph12%30.07 "Hg10 mi
Weather by CustomWeather, © 2016

See weather overviewHow to use our weather pages